Cloverdale, Indiana, United States (46120)
Lat: 39.51N, Lon: 86.79W
Wx Zone: INZ045
Local Info
Past Weather Observations for Monday, August 29, 2016

NOTE: This archive is for the closest National Weather Service station to Cloverdale. Information may differ from the station used for current weather conditions.

Click here for Long-term Archive

Time Weather Temperature Dewpoint Humidity Pressure Winds Precip Visibility
23:53
Clear
70°F / 21°C 68°F / 20°C 94% 30.18 in
(1022 mb)
Calm - 10SM
22:53
Clear
73°F / 23°C 70°F / 21°C 89% 30.18 in
(1022 mb)
Calm - 10SM
21:53
Clear
72°F / 22°C 70°F / 21°C 94% 30.18 in
(1022 mb)
Calm - 10SM
20:53
Clear
73°F / 23°C 70°F / 21°C 89% 30.15 in
(1021 mb)
Calm - 10SM
19:53
Clear
75°F / 24°C 72°F / 22°C 89% 30.15 in
(1021 mb)
Calm - 10SM
18:53
Clear
82°F / 28°C 70°F / 21°C 66% 30.15 in
(1021 mb)
NNE 4.6 mph
(NNE 7 kph)
- 10SM
17:53
Clear
88°F / 31°C 70°F / 21°C 55% 30.15 in
(1021 mb)
NE 5.8 mph
(NE 9 kph)
- 10SM
16:53
Clear
88°F / 31°C 70°F / 21°C 55% 30.15 in
(1021 mb)
N 5.8 mph
(N 9 kph)
- 10SM
15:53
Clear
90°F / 32°C 70°F / 21°C 52% 30.15 in
(1021 mb)
NNE 8.1 mph
(NNE 13 kph)
- 10SM
14:53
Clear
90°F / 32°C 70°F / 21°C 52% 30.18 in
(1022 mb)
N 3.5 mph
(N 6 kph)
- 10SM
13:53
Clear
90°F / 32°C 68°F / 20°C 49% 30.21 in
(1023 mb)
ESE 5.8 mph
(ESE 9 kph)
- 10SM
12:53
Clear
88°F / 31°C 66°F / 19°C 49% 30.21 in
(1023 mb)
Calm - 10SM
11:53
Clear
88°F / 31°C 70°F / 21°C 55% 30.24 in
(1024 mb)
ESE 5.8 mph
(ESE 9 kph)
- 10SM
10:53
Clear
84°F / 29°C 66°F / 19°C 55% 30.24 in
(1024 mb)
ESE 5.8 mph
(ESE 9 kph)
- 10SM
09:53
Clear
82°F / 28°C 68°F / 20°C 62% 30.24 in
(1024 mb)
SE 3.5 mph
(SE 6 kph)
- 10SM
07:53
Mostly Cloudy
73°F / 23°C 66°F / 19°C 78% 30.24 in
(1024 mb)
E 4.6 mph
(E 7 kph)
- 10SM
06:53
Clear
72°F / 22°C 66°F / 19°C 83% 30.21 in
(1023 mb)
Calm - 10SM
04:53
Clear
70°F / 21°C 66°F / 19°C 88% 30.18 in
(1022 mb)
SE 5.8 mph
(SE 9 kph)
- 10SM
03:53
Clear
70°F / 21°C 66°F / 19°C 88% 30.18 in
(1022 mb)
E 4.6 mph
(E 7 kph)
- 10SM
02:53
Clear
70°F / 21°C 66°F / 19°C 88% 30.18 in
(1022 mb)
NNW 3.5 mph
(NNW 6 kph)
- 9SM
01:53
Clear
72°F / 22°C 66°F / 19°C 83% 30.15 in
(1021 mb)
N 4.6 mph
(N 7 kph)
- 9SM
00:53
Clear
72°F / 22°C 68°F / 20°C 88% 30.18 in
(1022 mb)
Calm - 10SM
Time Weather Temperature Dewpoint Humidity Pressure Winds Precip Visibility


Weather for websites

WeatherForYou.com, LLC is not responsible for any damages or problems caused by this service. Current weather conditions are obtained from the closest station including government and personal stations which may have varying degrees of accuracy. Weather forecasts are derived from the NOAA NDFD. Like all things, this site belongs to Jesus Christ... He just trusts us to maintain it. If you have any questions or comments email webmaster@weatherforyou.com

Copyright © 2016, WeatherForYou.com LLC. All rights reserved.